Regional Weather Roundup
Issued by NWS Cleveland, OH

Home | Current Version | Previous Version | Graphics & Text | Print | Product List | Glossary On
Versions: 1 2 3 4 5 6 7 8 9 10 11 12 13 14 15 16 17 18 19 20 21 22 23 24 25 26 27 28 29 30 31 32 33 34 35 36 37 38 39 40 41 42 43 44 45 46 47 48 49 50
000
ASUS41 KCLE 300902
RWRCLE
OHIO REGIONAL WEATHER ROUNDUP
NATIONAL WEATHER SERVICE CLEVELAND, OH
500 AM EDT SAT AUG 30 2014

NOTE: "FAIR" INDICATES FEW OR NO CLOUDS BELOW 12,000 FEET WITH NO
SIGNIFICANT WEATHER AND/OR OBSTRUCTIONS TO VISIBILITY.

OHZ001>008-015>018-024>027-034-035-043-044-301000-
   NORTHWEST OHIO

CITY           SKY/WX    TMP DP  RH WIND       PRES   REMARKS
DEFIANCE       CLEAR     72  64  76 S7        29.97F
FINDLAY        CLEAR     69  63  81 S10       30.00S
TOLEDO EXPRESS PTCLDY    70  63  78 S8        29.98S
TOLEDO EXEC    PTCLDY    71  62  73 S10       29.99F
LIMA           CLEAR     70  65  84 S9        30.02R
$$

OHZ009>014-019>023-028>033-038-089-301000-
   NORTHEAST OHIO

CITY           SKY/WX    TMP DP  RH WIND       PRES   REMARKS
CLE-HOPKINS    PTCLDY    68  55  63 S7        30.05S
CLE-LAKEFRONT  PTCLDY    71  54  54 SE16      30.01S
CUY CO. ARPT   NOT AVBL
LORAIN-ELYRIA  PTCLDY    70  57  63 S8        30.04S
ASHTABULA      CLEAR     64  56  75 SE9       30.08S
AKRON-CANTON   PTCLDY    67  54  63 S6        30.07F
WOOSTER        CLEAR     64  56  75 SW3       30.07S
MANSFIELD      CLEAR     69  59  70 SE7       30.07S
YOUNGSTOWN     PTCLDY    62  56  80 SE10      30.09S
$$

OHZ042-051>053-060>062-070>072-077>081-301000-
  SOUTHWEST OHIO

CITY           SKY/WX    TMP DP  RH WIND       PRES   REMARKS
CINC-COVINGTON CLEAR     70  66  87 S7        30.05R
CINC-LUNKEN    CLEAR     70  69  97 CALM      30.04S FOG
HAMILTON       CLEAR     71  70  96 E3        30.04S
DAYTON         PTCLDY    73  68  84 S7        30.05R
WRIGHT-PAT AFB PTCLDY    70  67  91 CALM      30.04S
DAYTON GENERAL MOCLDY   N/A N/A N/A S7        30.04R
WILMINGTON     PTCLDY    71  67  87 S6        30.05S
$$

OHZ036-037-039>041-045>050-054>059-063>069-073>076-082>088-301000-
  CENTRAL AND SOUTHEAST OHIO

CITY           SKY/WX    TMP DP  RH WIND       PRES   REMARKS
COLUMBUS       PTCLDY    72  62  71 E3        30.04F
OSU AIRPORT    CLEAR     71  62  73 SE7       30.05S
BOLTON FIELD   CLEAR     67  64  89 S5        30.05F
RICKENBACK AFB CLEAR     69  60  72 CALM      30.04F
NEWARK         PTCLDY    63  61  93 CALM      30.06S
MARION         CLEAR     66  61  84 S7        30.04F
LANCASTER      PTCLDY    70  62  76 SE5       30.06S
ZANESVILLE     PTCLDY    65  59  81 CALM      30.07S
NEW PHILLY     PTCLDY    60  59  96 CALM      30.08S
$$


USA.gov is the U.S. government's official web portal to all federal, state and local government web resources and services.